Stations météo

réclame
Mon MeteoGroup
Vinga, Suède (2516): Température de l'air & dewpoint: 18.01.2020 13:00:00 - 24.01.2020 13:00:00 (CET)Vinga, Suède (2516): Vitesse du vent & gusts: 18.01.2020 13:00:00 - 24.01.2020 13:00:00 (CET)Vinga, Suède (2516): Direction du vent: 18.01.2020 13:00:00 - 24.01.2020 13:00:00 (CET)Vinga, Suède (2516): reduced air pressure: 18.01.2020 13:00:00 - 24.01.2020 13:00:00 (CET)Vinga, Suède (2516): visibility: 18.01.2020 13:00:00 - 24.01.2020 13:00:00 (CET)Vinga, Suède (2516): Quantités de précipitations: 18.01.2020 13:00:00 - 24.01.2020 13:00:00 (CET)
Date & Time tt [°C] td [°C] ff [km/h] ff [knt] fx [km/h] fx [knt] dd ppp [hPa] vv [km] rr [mm]
24.01.2020 13:00:00 - - - - - - - - - -
24.01.2020 12:00:00 6,6 6,0 32 18 40 22 WSW 1012,0 2,5 0,0
24.01.2020 11:00:00 6,8 5,9 29 16 40 22 WSW 1012,1 - 0,0
24.01.2020 10:00:00 6,7 5,8 29 15 40 22 WSW 1012,6 9 0,0
24.01.2020 09:00:00 6,8 5,9 31 17 45 24 WSW 1012,3 10 0,0
24.01.2020 08:00:00 6,5 5,8 33 18 53 28 WSW 1012,2 9 0,0
24.01.2020 07:00:00 6,6 5,7 40 21 49 27 WSW 1011,9 10 0,0
24.01.2020 06:00:00 6,4 5,5 36 20 48 26 WSW 1012,9 9 0,0
24.01.2020 05:00:00 6,5 5,4 39 21 48 26 WSW 1013,2 10 0,0
24.01.2020 04:00:00 6,7 5,3 33 18 46 25 WSW 1014,0 11 0,0
24.01.2020 03:00:00 6,5 5,3 32 17 49 27 WSW 1014,6 9 0,0
24.01.2020 02:00:00 6,6 5,4 34 18 47 26 WSW 1015,0 9 0,0
24.01.2020 01:00:00 6,7 5,2 32 18 50 27 W 1016,1 10 0,0
24.01.2020 00:00:00 7,0 5,5 31 17 47 26 W 1016,9 11 0,0
23.01.2020 23:00:00 6,7 5,6 27 15 41 22 WSW 1017,4 10 0,0
23.01.2020 22:00:00 6,7 5,8 29 15 37 20 WSW 1017,5 9 0,0
23.01.2020 21:00:00 6,7 5,8 23 12 34 18 WSW 1018,0 9 0,0
23.01.2020 20:00:00 7,1 6,5 26 14 36 19 WSW 1018,5 9 0,0
23.01.2020 19:00:00 6,8 6,4 26 14 35 19 SW 1018,7 8 0,0
23.01.2020 18:00:00 6,9 6,5 27 14 33 18 SW 1019,1 7 0,0
23.01.2020 17:00:00 7,5 7,1 25 13 36 20 WSW 1019,8 10 0,0
23.01.2020 16:00:00 7,0 6,7 26 14 34 19 WSW 1020,0 7 0,0
23.01.2020 15:00:00 7,0 6,7 29 16 37 20 WSW 1020,9 2,4 0,0
23.01.2020 14:00:00 6,4 6,0 32 17 41 22 SW 1021,7 4,6 0,0
23.01.2020 13:00:00 6,3 5,9 35 19 47 25 SW 1022,4 2,1 0,0
23.01.2020 12:00:00 6,3 5,7 35 19 56 31 WSW 1023,1 7 0,0
23.01.2020 11:00:00 6,3 5,6 44 24 55 30 WSW 1023,2 12 0,0
23.01.2020 10:00:00 6,1 5,5 35 19 59 32 W 1024,2 8 0,0
23.01.2020 09:00:00 5,9 5,0 33 18 52 28 W 1024,6 9 0,0
23.01.2020 08:00:00 6,0 4,8 27 15 42 23 W 1025,2 11 0,0
23.01.2020 07:00:00 5,9 4,4 21 12 35 19 W 1025,5 10 0,0
23.01.2020 06:00:00 5,3 3,0 18 10 32 18 W 1026,1 18 0,0
23.01.2020 05:00:00 4,7 3,2 25 13 32 18 WSW 1026,4 15 0,0
23.01.2020 04:00:00 4,8 3,9 24 13 29 15 SW 1027,3 10 0,0
23.01.2020 03:00:00 4,5 3,2 26 14 30 16 SW 1028,3 16 0,0
23.01.2020 02:00:00 5,1 3,0 18 10 22 12 SSW 1029,0 43 0,0
23.01.2020 01:00:00 4,0 3,1 10 5 13 7 SSW 1029,7 31 0,0
23.01.2020 00:00:00 3,6 2,4 8 4 10 6 SW 1030,4 23 0,0
22.01.2020 23:00:00 4,3 2,6 7 4 12 6 WSW 1030,6 33 0,0
22.01.2020 22:00:00 4,7 2,9 9 5 16 8 WSW 1031,0 38 0,0
22.01.2020 21:00:00 4,1 1,8 10 6 14 7 SW 1030,9 32 0,0
22.01.2020 20:00:00 4,0 -0,2 0 0 6 4 N 1030,5 48 0,0
22.01.2020 19:00:00 3,9 0,9 5 3 11 6 NNE 1029,9 29 0,0
22.01.2020 18:00:00 4,6 1,8 10 5 17 9 N 1030,1 21 0,0
22.01.2020 17:00:00 5,3 1,8 11 6 22 12 NNW 1029,5 28 0,0
22.01.2020 16:00:00 5,7 1,4 16 9 25 14 N 1029,3 30 0,0
22.01.2020 15:00:00 6,1 1,8 18 10 31 17 NNW 1028,9 27 0,0
22.01.2020 14:00:00 6,4 2,7 22 12 39 21 NNW 1028,5 23 0,0
22.01.2020 13:00:00 6,7 2,6 24 13 35 19 NNW 1028,2 23 0,0
22.01.2020 12:00:00 6,7 3,5 29 16 44 24 NNW 1027,8 17 0,0
22.01.2020 11:00:00 6,9 3,5 34 18 48 26 NNW 1027,2 16 0,0
22.01.2020 10:00:00 6,7 3,7 36 19 49 26 NW 1026,1 14 0,0
22.01.2020 09:00:00 6,8 3,8 40 22 51 28 NW 1025,2 12 0,0
22.01.2020 08:00:00 6,7 3,7 42 23 57 31 NW 1024,2 11 0,0
22.01.2020 07:00:00 6,8 3,6 41 22 61 33 NW 1023,5 10 0,0
22.01.2020 06:00:00 6,9 3,5 44 24 57 31 WNW 1023,1 10 0,0
22.01.2020 05:00:00 6,9 3,5 47 25 63 34 WNW 1023,0 10 0,0
22.01.2020 04:00:00 6,8 3,2 46 25 65 35 WNW 1022,9 10 0,0
22.01.2020 03:00:00 6,8 2,9 46 25 70 38 WNW 1022,9 10 0,0
22.01.2020 02:00:00 6,8 2,5 51 28 74 40 WNW 1022,7 10 0,0
22.01.2020 01:00:00 6,8 2,7 52 28 68 37 WNW 1022,9 11 0,0
22.01.2020 00:00:00 6,4 3,4 40 22 55 30 WNW 1023,5 10 0,0
21.01.2020 23:00:00 6,4 3,0 39 21 50 27 WNW 1023,9 10 0,0
21.01.2020 22:00:00 6,4 3,4 35 19 46 25 WNW 1024,2 - 0,0
21.01.2020 21:00:00 6,5 3,6 32 18 50 27 W 1024,7 9 0,0
21.01.2020 20:00:00 6,6 4,1 35 19 47 26 W 1024,6 9 0,0
21.01.2020 19:00:00 6,6 4,3 27 15 46 25 W 1025,2 9 0,0
21.01.2020 18:00:00 6,6 4,8 33 18 48 26 W 1025,3 8 0,0
21.01.2020 17:00:00 6,7 4,2 31 17 48 26 W 1025,5 9 0,0
21.01.2020 16:00:00 7,2 4,3 31 17 57 31 W 1025,5 10 0,0
21.01.2020 15:00:00 7,4 5,0 19 10 34 18 W 1026,1 10 0,0
21.01.2020 14:00:00 7,5 6,0 30 16 45 24 W 1025,7 8 0,0
21.01.2020 13:00:00 7,5 6,1 34 18 51 27 W 1025,6 9 0,0
21.01.2020 12:00:00 7,6 6,2 35 19 54 29 WSW 1026,3 8 0,0
21.01.2020 11:00:00 7,6 6,2 40 21 50 27 WSW 1026,1 7 0,0
21.01.2020 10:00:00 7,4 6,2 37 20 56 31 WSW 1026,0 7 0,0
21.01.2020 09:00:00 7,3 6,1 41 22 58 32 WSW 1026,2 7 0,0
21.01.2020 08:00:00 7,3 6,1 42 23 53 29 WSW 1027,0 7 0,0
21.01.2020 07:00:00 6,8 5,9 42 23 59 32 WSW 1027,1 7 0,0
21.01.2020 06:00:00 6,8 5,4 45 25 60 33 WSW 1027,1 7 0,0
21.01.2020 05:00:00 6,8 5,3 40 22 56 30 W 1028,1 8 0,0
21.01.2020 04:00:00 6,6 5,2 42 23 61 33 WSW 1028,2 7 0,0
21.01.2020 03:00:00 6,7 5,5 47 25 61 33 WSW 1028,9 8 0,0
21.01.2020 02:00:00 6,7 5,5 44 24 64 35 WSW 1029,8 7 0,0
21.01.2020 01:00:00 6,5 5,3 46 25 58 32 WSW 1029,7 7 0,0
21.01.2020 00:00:00 6,4 5,0 38 21 55 30 WSW 1030,4 7 0,0
20.01.2020 23:00:00 6,2 4,8 37 20 52 28 WSW 1031,2 8 0,0
20.01.2020 22:00:00 6,1 4,6 37 20 53 29 WSW 1031,9 8 0,0
20.01.2020 21:00:00 6,2 4,8 36 19 51 27 WSW 1032,0 8 0,0
20.01.2020 20:00:00 6,3 4,9 40 22 53 29 WSW 1032,5 8 0,0
20.01.2020 19:00:00 6,4 5,0 34 19 43 23 WSW 1033,1 8 0,0
20.01.2020 18:00:00 6,5 5,1 32 17 38 21 WSW 1033,5 7 0,0
20.01.2020 17:00:00 6,8 5,4 32 17 41 22 WSW 1033,8 8 0,0
20.01.2020 16:00:00 6,4 5,0 27 15 38 21 SW 1034,0 7 0,0
20.01.2020 15:00:00 6,7 4,9 30 16 39 21 WSW 1034,1 8 0,0
20.01.2020 14:00:00 6,9 5,1 29 16 44 24 WSW 1034,5 8 0,0
20.01.2020 13:00:00 6,7 5,0 32 17 48 26 WSW 1034,7 8 0,0
20.01.2020 12:00:00 6,6 5,0 31 17 46 25 W 1034,7 8 0,0
20.01.2020 11:00:00 6,5 5,0 33 18 42 23 WSW 1035,3 8 0,0
20.01.2020 10:00:00 6,5 5,0 31 17 47 25 WSW 1035,5 9 0,0
20.01.2020 09:00:00 6,4 4,9 36 19 52 28 WSW 1035,3 9 0,0
20.01.2020 08:00:00 6,3 4,8 36 20 48 26 WSW 1035,2 - 0,0
20.01.2020 07:00:00 6,2 4,7 33 18 44 24 WSW 1035,4 10 0,0
20.01.2020 06:00:00 6,4 4,9 29 15 45 24 W 1036,0 11 0,0
20.01.2020 05:00:00 6,3 5,3 27 15 37 20 W 1036,1 9 0,0
20.01.2020 04:00:00 5,8 4,9 17 9 24 13 W 1036,5 8 0,0
20.01.2020 03:00:00 5,1 3,9 21 12 26 14 WSW 1037,2 13 0,0
20.01.2020 02:00:00 4,9 3,6 18 10 23 12 WSW 1037,3 15 0,0
20.01.2020 01:00:00 5,1 3,4 17 9 25 14 WSW 1037,3 14 0,0
20.01.2020 00:00:00 4,9 2,6 13 7 18 10 WSW 1037,0 18 0,0
19.01.2020 23:00:00 4,5 2,5 10 5 17 9 WSW 1036,8 16 0,0
19.01.2020 22:00:00 4,7 1,9 12 6 16 9 WSW 1036,9 24 0,0
19.01.2020 21:00:00 5,3 0,1 8 4 13 7 W 1036,2 43 0,0
19.01.2020 20:00:00 4,7 0,5 8 5 14 8 W 1035,7 35 0,0
19.01.2020 19:00:00 4,9 0,5 11 6 16 9 NW 1035,5 25 0,0
19.01.2020 18:00:00 4,7 1,0 10 6 21 11 NW 1034,7 24 0,0
19.01.2020 17:00:00 5,0 1,8 16 9 27 14 NW 1033,8 19 0,0
19.01.2020 16:00:00 5,2 1,9 18 10 27 14 NNW 1032,9 20 0,0
19.01.2020 15:00:00 5,7 1,4 21 11 31 17 NNW 1032,1 24 0,0
19.01.2020 14:00:00 6,1 1,8 23 12 36 19 NNW 1031,2 28 0,0
19.01.2020 13:00:00 6,3 2,0 23 12 36 19 NW 1030,4 31 0,0
19.01.2020 12:00:00 6,4 2,5 26 14 36 19 NW 1029,3 31 0,0
19.01.2020 11:00:00 6,3 2,6 29 16 39 21 NNW 1028,2 25 0,0
19.01.2020 10:00:00 6,4 3,0 23 12 35 19 NW 1027,1 26 0,0
19.01.2020 09:00:00 6,2 2,8 26 14 34 19 NW 1025,8 27 0,0
19.01.2020 08:00:00 6,2 2,8 25 13 34 18 WNW 1024,1 19 0,0
19.01.2020 07:00:00 6,3 2,7 29 16 41 22 WNW 1023,1 21 0,0
19.01.2020 06:00:00 6,4 3,0 32 17 39 21 WNW 1021,8 21 0,0
19.01.2020 05:00:00 6,1 3,1 27 15 34 19 WNW 1020,6 20 0,0
19.01.2020 04:00:00 6,1 3,4 28 15 35 19 WNW 1019,8 19 0,0
19.01.2020 03:00:00 6,0 3,8 26 14 34 19 WNW 1018,9 16 0,0
19.01.2020 02:00:00 5,9 3,9 24 13 35 19 WNW 1017,7 13 0,0
19.01.2020 01:00:00 6,1 3,9 27 15 40 21 WNW 1016,5 12 0,0
19.01.2020 00:00:00 6,2 3,9 29 15 40 22 W 1015,5 11 0,0
18.01.2020 23:00:00 6,2 3,9 29 16 48 26 W 1014,4 11 0,0
18.01.2020 22:00:00 6,3 3,8 30 16 47 25 W 1013,4 11 0,0
18.01.2020 21:00:00 6,4 3,9 31 17 45 24 W 1012,6 12 0,0
18.01.2020 20:00:00 6,5 4,3 28 15 44 24 W 1011,5 11 0,0
18.01.2020 19:00:00 6,6 4,6 29 16 45 24 W 1010,4 10 0,0
18.01.2020 18:00:00 6,5 4,5 28 15 44 24 W 1009,5 9 0,0
18.01.2020 17:00:00 6,7 4,5 31 17 50 27 W 1008,6 - 0,0
18.01.2020 16:00:00 6,6 4,8 32 17 47 25 W 1007,4 8 0,2
18.01.2020 15:00:00 5,9 4,7 37 20 57 31 WSW 1006,6 4,2 0,9
18.01.2020 14:00:00 5,5 4,5 41 22 57 31 SW 1006,1 4,0 0,4
18.01.2020 13:00:00 5,6 4,1 45 24 55 30 SW 1006,2 - 0,0

tt = Température de l'air
td = dewpoint
ff = Vitesse du vent
fx = gusts
dd = Direction du vent
ppp = reduced air pressure
vv = visibility
rr = Quantités de précipitations

stations d'obs. à proximité